This demonstration page uses our WeatherBlox Daily Observations layout. Learn more.

Left ArrowRight Arrow

Hourly Observations for October 27, 2020

Temp ( °F °C ) Dew Point ( °F °C ) Humidity (%) Winds ( mph kmh ) Pressure ( in mb ) Visibility ( mi km ) Precip ( " mm )
12:06 am 00:06 Cloudy with Mist and Fog 29 -1.7 27 -2.8 92 92 NNE 14 22 30.31 1027 5 8 0.00 0.00
12:23 am 00:23 Cloudy with Mist and Fog 30 -1.1 28 -2.2 92 92 NNE 13 20 30.30 1026 4 6 0.00 0.00
12:32 am 00:32 Cloudy with Mist and Fog 30 -1.1 27 -2.8 88 88 NNE 9 15 30.31 1026 3 5 0.00 0.00
12:53 am 00:53 Cloudy with Mist and Fog 29 -1.7 27 -2.8 92 92 NNE 15 24 30.19 1022 4 6 0.00 0.00
1:00 am 01:00 Cloudy with Light Snow 29 -1.7 27 -2.8 92 92 NNE 13 20 30.30 1026 2 3 0.00 0.00
1:14 am 01:14 Cloudy with Light Snow 29 -1.7 27 -2.8 92 92 NNE 12 19 30.28 1026 3 5 0.00 0.00
1:53 am 01:53 Cloudy with Mist and Fog 29 -1.7 27 -2.8 92 92 NNE 13 20 30.18 1022 5 8 0.00 0.00
2:00 am 02:00 Cloudy with Mist and Fog 29 -1.7 27 -2.8 92 92 NNE 12 19 30.29 1026 6 10 0.00 0.00
2:16 am 02:16 Cloudy with Mist and Fog 29 -1.7 26 -3.3 89 89 NNE 13 20 30.29 1026 4 6 0.00 0.00
2:53 am 02:53 Cloudy with Mist and Fog 29 -1.7 26 -3.3 89 89 N 12 19 30.18 1022 4 6 0.00 0.00
3:32 am 03:32 Cloudy with Mist and Fog 28 -2.2 26 -3.3 92 92 N 12 19 30.29 1026 5 8 0.00 0.00
3:53 am 03:53 Cloudy with Mist and Fog 28 -2.2 26 -3.3 92 92 NNE 13 20 30.16 1022 5 8 0.00 0.00
4:01 am 04:01 Cloudy with Mist and Fog 28 -2.2 26 -3.3 92 92 N 13 20 30.28 1025 5 8 0.00 0.00
4:36 am 04:36 Cloudy with Mist and Fog 28 -2.2 26 -3.3 92 92 NNE 12 19 30.27 1025 5 8 0.00 0.00
4:48 am 04:48 Cloudy 28 -2 25 -4 86 86 NNE 14 22 30.27 1025 7 11 0.00 0.00
4:53 am 04:53 Cloudy with Mist and Fog 28 -2.2 25 -3.9 88 88 NNE 14 22 30.15 1021 6 10 0.00 0.00
4:58 am 04:58 Cloudy 27 -2.8 25 -3.9 92 92 NNE 12 19 30.28 1025 7 11 0.00 0.00
5:38 am 05:38 Cloudy with Mist and Fog 28 -2.2 25 -3.9 88 88 NNE 13 20 30.28 1025 5 8 0.00 0.00
5:53 am 05:53 Cloudy with Mist and Fog 28 -2.2 25 -3.9 88 88 NNE 10 17 30.16 1022 6 10 0.00 0.00
6:22 am 06:22 Cloudy with Mist and Fog 28 -2.2 26 -3.3 92 92 NNE 13 20 30.29 1026 3 5 0.00 0.00
6:41 am 06:41 Cloudy 28 -2.2 25 -3.9 88 88 NNE 12 19 30.29 1026 7 11 0.00 0.00
6:53 am 06:53 Cloudy with Mist and Fog 27 -2.8 25 -3.9 92 92 NNE 10 17 30.18 1022 5 8 0.00 0.00
7:06 am 07:06 Cloudy with Mist and Fog 27 -2.8 25 -3.9 92 92 NNE 12 19 30.30 1026 3 5 0.00 0.00
7:21 am 07:21 Cloudy with Mist and Fog 28 -2.2 26 -3.3 92 92 N 10 17 30.30 1026 4 6 0.00 0.00
7:53 am 07:53 Cloudy with Mist and Fog 28 -2.2 25 -3.9 88 88 N 10 17 30.20 1023 5 8 0.00 0.00
8:12 am 08:12 Cloudy with Mist and Fog 28 -2.2 25 -3.9 88 88 N 12 19 30.32 1027 6 10 0.00 0.00
8:22 am 08:22 Cloudy with Mist and Fog 27 -2.8 25 -3.9 92 92 N 14 22 30.33 1027 5 8 0.00 0.00
8:53 am 08:53 Cloudy with Mist and Fog 28 -2.2 26 -3.3 92 92 N 13 20 30.22 1023 3 4 0.00 0.00
9:20 am 09:20 Cloudy with Mist and Fog 28 -2.2 26 -3.3 92 92 N 12 19 30.33 1027 3 5 0.00 0.00
9:53 am 09:53 Cloudy with Mist and Fog 29 -1.7 27 -2.8 92 92 NNE 12 19 30.22 1023 5 8 0.00 0.00
10:21 am 10:21 Cloudy with Mist and Fog 29 -1.7 27 -2.8 92 92 N 17 28 30.33 1027 2 3 0.00 0.00
10:53 am 10:53 Cloudy with Mist and Fog 29 -1.7 26 -3.3 89 89 N 15 24 30.24 1024 2 3 0.00 0.00
11:11 am 11:11 Cloudy with Mist and Fog 29 -1.7 26 -3.3 89 89 NNE 16 26 30.34 1028 5 8 0.00 0.00
11:24 am 11:24 Cloudy with Mist and Fog 29 -1.7 26 -3.3 89 89 N 13 20 30.33 1027 5 8 0.00 0.00
11:50 am 11:50 Cloudy 30 -1 27 -3 86 86 NNE 15 24 30.31 1026 10 16 0.00 0.00
11:53 am 11:53 Cloudy 30 -1.1 26 -3.3 85 85 NNE 15 24 30.22 1023 10 16 0.00 0.00
12:53 pm 12:53 Cloudy 30 -1.1 26 -3.3 85 85 NNE 12 19 30.20 1023 10 16 0.00 0.00
1:34 pm 13:34 Cloudy with Mist and Fog 30 -1.1 28 -2.2 92 92 N 13 20 30.27 1025 6 10 0.00 0.00
1:53 pm 13:53 Cloudy with Mist and Fog 30 -1.1 27 -2.8 88 88 NNE 15 24 30.17 1022 4 6 0.00 0.00
2:14 pm 14:14 Cloudy 31 -0.6 27 -2.8 85 85 NE 14 22 30.23 1024 10 16 0.00 0.00
2:21 pm 14:21 Cloudy with Mist and Fog 30 -1.1 28 -2.2 92 92 N 14 22 30.24 1024 5 8 0.00 0.00
2:28 pm 14:28 Cloudy with Mist and Fog 30 -1.1 27 -2.8 88 88 NNE 14 22 30.24 1024 4 6 0.00 0.00
2:53 pm 14:53 Cloudy 31 -0.6 27 -2.8 85 85 NNE 14 22 30.13 1020 10 16 0.00 0.00
3:11 pm 15:11 Cloudy with Mist and Fog 31 -0.6 28 -2.2 89 89 N 12 19 30.22 1023 5 8 0.00 0.00
3:15 pm 15:15 Cloudy with Mist and Fog 31 -0.6 28 -2.2 89 89 N 12 19 30.22 1023 4 6 0.00 0.00
3:43 pm 15:43 Cloudy with Mist and Fog 31 -0.6 28 -2.2 89 89 N 12 19 30.21 1023 4 6 0.00 0.00
3:53 pm 15:53 Cloudy with Mist and Fog 31 -0.6 28 -2.2 89 89 N 13 20 30.12 1020 3 5 0.00 0.00
4:37 pm 16:37 Cloudy 31 -0.6 28 -2.2 89 89 N 14 22 30.20 1023 9 14 0.00 0.00
4:50 pm 16:50 Cloudy with Mist and Fog 30 -1 28 -2 93 93 N 14 22 30.21 1023 4 6 0.00 0.00
4:53 pm 16:53 Cloudy with Mist and Fog 31 -0.6 28 -2.2 89 89 N 12 19 30.11 1020 4 6 0.00 0.00
5:03 pm 17:03 Cloudy with Mist and Fog 31 -0.6 28 -2.2 89 89 N 9 15 30.21 1023 6 10 0.00 0.00
5:20 pm 17:20 Cloudy with Mist and Fog 31 -0.6 28 -2.2 89 89 N 14 22 30.21 1023 4 6 0.00 0.00
5:29 pm 17:29 Cloudy with Mist and Fog 31 -0.6 28 -2.2 89 89 N 12 19 30.20 1023 3 4 0.00 0.00
5:37 pm 17:37 Cloudy with Mist and Fog 31 -0.6 28 -2.2 89 89 N 9 15 30.22 1023 3 5 0.00 0.00
5:53 pm 17:53 Cloudy with Mist and Fog 31 -0.6 28 -2.2 89 89 N 10 17 30.12 1020 3 4 0.00 0.00
6:05 pm 18:05 Cloudy with Light Freezing Rain 30 -1.1 28 -2.2 92 92 N 14 22 30.24 1024 3 4 0.00 0.00
6:09 pm 18:09 Cloudy with Light Freezing Rain 30 -1.1 28 -2.2 92 92 N 13 20 30.23 1024 3 5 0.00 0.00
6:13 pm 18:13 Cloudy with Mist and Fog 30 -1.1 28 -2.2 92 92 N 13 20 30.23 1024 4 6 0.00 0.00
6:20 pm 18:20 Cloudy with Mist and Fog 30 -1.1 28 -2.2 92 92 N 10 17 30.24 1024 5 8 0.00 0.00
6:34 pm 18:34 Cloudy with Light Wintry Mix 31 -0.6 28 -2.2 89 89 N 12 19 30.22 1023 10 16 0.00 0.00
6:53 pm 18:53 Cloudy with Light Snow 30 -1.1 28 -2.2 92 92 NNW 13 20 30.14 1021 2 3 0.00 0.00
7:06 pm 19:06 Cloudy with Mist and Fog 30 -1.1 28 -2.2 92 92 NNE 10 17 30.22 1023 3 5 0.00 0.00
7:16 pm 19:16 Cloudy 30 -1.1 28 -2.2 92 92 N 10 17 30.23 1024 10 16 0.00 0.00
7:28 pm 19:28 Cloudy with Light Freezing Rain 31 -0.6 29 -1.7 92 92 N 10 17 30.22 1023 6 10 0.00 0.00
7:34 pm 19:34 Cloudy with Light Freezing Rain 31 -0.6 28 -2.2 89 89 N 10 17 30.22 1023 6 10 0.00 0.00
7:41 pm 19:41 Cloudy with Mist and Fog 31 -0.6 29 -1.7 92 92 NNW 8 13 30.23 1024 6 10 0.00 0.00
7:53 pm 19:53 Cloudy 31 -0.6 28 -2.2 89 89 NNW 9 15 30.15 1021 7 11 0.00 0.00
8:13 pm 20:13 Cloudy 31 -0.6 29 -1.7 92 92 NNW 8 13 30.24 1024 8 13 0.00 0.00
8:33 pm 20:33 Cloudy 31 -0.6 28 -2.2 89 89 NNW 7 11 30.24 1024 10 16 0.00 0.00
8:53 pm 20:53 Cloudy 31 -0.6 28 -2.2 89 89 NNW 9 15 30.16 1021 10 16 0.00 0.00
9:53 pm 21:53 Cloudy 31 -0.6 29 -1.7 92 92 NW 5 7 30.17 1022 10 16 0.00 0.00
10:53 pm 22:53 Cloudy 32 0 29 -1.7 88 88 W 5 7 30.18 1022 9 14 0.00 0.00
11:53 pm 23:53 Cloudy 32 0 29 -1.7 88 88 WSW 8 13 30.18 1022 10 16 0.00 0.00

Powered by AerisWeather